Regional Weather Roundup
Issued by NWS Mt. Holly, NJ

Home | Current Version | Previous Version | Text Only | Print | Product List | Glossary On
Versions: 1 2 3 4 5 6 7 8 9 10 11 12 13 14 15 16 17 18 19 20 21 22 23 24 25 26 27
000
ASUS41 KPHI 170410
RWRPHI

REGIONAL WEATHER ROUNDUP
NATIONAL WEATHER SERVICE MOUNT HOLLY NJ
1200 AM EDT THU APR 17 2014

NOTE:  "FAIR" INDICATES FEW OR NO CLOUDS BELOW 12,000 FEET WITH NO
SIGNIFICANT WEATHER AND/OR OBSTRUCTIONS TO VISIBILITY.

 * = STATION DOES NOT REPORT PRECIPITATION (E.G. RAIN, SNOW, ETC.)
        OR FOG.

NJZ015>026-170500-
SOUTHERN NEW JERSEY

CITY           SKY/WX    TMP DP  RH WIND       PRES   REMARKS
POMONA         CLEAR     32  26  78 CALM      30.55R
RIO GRANDE*    CLEAR     39  27  60 E3        30.55S
MILLVILLE      CLEAR     30  27  88 CALM      30.55R
WRIGHTSTOWN    CLEAR     36  22  56 NE3       30.54R
MOUNT HOLLY    CLEAR     34  27  75 CALM      30.56R
TRENTON        CLEAR     36  18  48 N5        30.55R WCI  32

$$
NJZ001>014-170500-
NORTHERN NEW JERSEY

CITY           SKY/WX    TMP DP  RH WIND       PRES   REMARKS
SUSSEX           N/A     34  19  54 CALM      30.57R
ANDOVER*         N/A     32  21  64 CALM      30.56R
MORRISTOWN     CLEAR     37  19  48 NE8       30.58R WCI  31
NEWARK         PTCLDY    40  17  39 NE10      30.57R WCI  33
TETERBORO      CLEAR     41  15  35 NE3       30.57R
CALDWELL       CLEAR     38  15  39 NE7       30.59R WCI  33
SOMERVILLE     CLEAR     31  26  82 CALM      30.55R
ALLAIRE*       CLEAR     39  19  45 NE6       30.55R WCI  35
TOMS RIVER*    CLEAR     28  23  80 CALM      30.57R

$$
PAZ043-044-047-054-055-060>062-066>071-170500-
EASTERN PENNSYLVANIA

CITY           SKY/WX    TMP DP  RH WIND       PRES   REMARKS
PHILADELPHIA   CLEAR     42  16  34 NE9       30.57R
NORTH PHILA    CLEAR     40  17  39 N8        30.57R WCI  34
BLUE BELL      CLEAR     37  25  60 CALM      30.55R
DOYLESTOWN     CLEAR     34  19  54 NE3       30.55R
QUAKERTOWN*    CLEAR     34  19  55 CALM      30.56R
POTTSTOWN      CLEAR     34  22  61 N5        30.57R WCI  30
LANCASTER      CLEAR     34  19  54 E6        30.54R WCI  29
READING        CLEAR     38  16  40 N5        30.55R WCI  34
ALLENTOWN      CLEAR     35  16  45 CALM      30.57R
MOUNT POCONO   CLEAR     30  14  51 NE5       30.49R WCI  25
HAZLETON       CLEAR     32  12  43 CALM      30.54R
WILKES BARRE   CLEAR     31  17  56 CALM      30.54R

$$
DEZALL-MDZ008-012-015-019-020-170500-
DELAWARE AND EASTERN MARYLAND

CITY           SKY/WX    TMP DP  RH WIND       PRES   REMARKS
WILMINGTON     CLEAR     38  21  50 NE6       30.56R WCI  33
DOVER          CLEAR     39  33  80 W2        30.55R
GEORGETOWN     CLEAR     35  30  82 CALM      30.55R
EASTON         CLEAR     39  31  73 SE3       30.58R
PATUXENT       CLEAR     40  26  57 NE8       30.53R WCI  34
OCEAN CITY     CLEAR     42  29  59 MISG      30.54R
WALLOPS ISLAND CLEAR     42  31  64 E8        30.54R
CAMBRIDGE      CLEAR     37  30  75 E5        30.54R WCI  34
SALISBURY      CLEAR     36  29  75 CALM      30.54R

$$
PAZ001-021-NYZ056-072-MDZ011-DCZ001-170500-
OTHER NEARBY LOCATIONS

CITY           SKY/WX    TMP DP  RH WIND       PRES   REMARKS
HARRISBURG     PTCLDY    39  16  39 NE3       30.54R
STATE COLLEGE  PTCLDY    37   8  31 E7        30.50R WCI  31
WILLIAMSPORT   PTCLDY    34  15  46 CALM      30.55R
BINGHAMTON     CLEAR     27  13  55 E6        30.51R WCI  20
NEW YORK CITY  CLEAR     40  13  33 NE8       30.59R WCI  34
BALTIMORE      CLEAR     36  24  62 CALM      30.54R
WASHINGTON DC  CLEAR     43  24  47 NE7       30.55R

$$



USA.gov is the U.S. government's official web portal to all federal, state and local government web resources and services.